Time,TemperatureF,DewpointF,PressureIn,WindDirection,WindDirectionDegrees,WindSpeedMPH,WindSpeedGustMPH,Humidity,HourlyPrecipIn,Conditions,Clouds,dailyrainin,SolarRadiationWatts/m^2,SoftwareType,DateUTC
2013-04-20 00:01:00,45.0,41.9,29.74,West,273,1.0,5.0,89,0.06,,,0.00,0.0,meteohub,2013-04-20 04:01:00,
2013-04-20 00:02:00,45.0,41.9,29.74,West,273,1.0,5.0,89,0.06,,,0.00,0.0,meteohub,2013-04-20 04:02:00,
2013-04-20 00:04:00,45.0,41.9,29.74,West,261,1.0,5.0,89,0.06,,,0.00,0.0,meteohub,2013-04-20 04:04:00,
2013-04-20 00:09:00,45.0,41.9,29.75,West,270,0.0,3.0,89,0.02,,,0.00,0.0,meteohub,2013-04-20 04:09:00,
2013-04-20 00:15:00,44.8,41.7,29.75,WNW,302,2.0,3.0,89,0.02,,,0.00,0.0,meteohub,2013-04-20 04:15:00,
2013-04-20 00:20:00,44.8,41.7,29.75,WNW,302,0.0,3.0,89,0.04,,,0.01,0.0,meteohub,2013-04-20 04:20:00,
2013-04-20 00:25:00,44.8,41.7,29.75,WSW,240,0.0,4.0,89,0.04,,,0.01,0.0,meteohub,2013-04-20 04:25:00,
2013-04-20 00:31:00,44.8,42.1,29.76,WSW,240,0.0,4.0,90,0.04,,,0.01,0.0,meteohub,2013-04-20 04:31:00,
2013-04-20 00:36:00,44.8,42.1,29.76,WSW,240,1.0,4.0,90,0.05,,,0.02,0.0,meteohub,2013-04-20 04:36:00,
2013-04-20 00:41:00,44.4,41.7,29.75,WNW,288,0.0,5.0,90,0.05,,,0.03,0.0,meteohub,2013-04-20 04:41:00,
2013-04-20 00:47:00,44.4,41.7,29.75,WNW,287,3.0,5.0,90,0.04,,,0.03,0.0,meteohub,2013-04-20 04:47:00,
2013-04-20 00:52:00,44.4,41.7,29.78,WSW,258,5.0,5.0,90,0.04,,,0.04,0.0,meteohub,2013-04-20 04:52:00,
2013-04-20 00:57:00,44.2,41.5,29.77,West,259,0.0,5.0,90,0.05,,,0.04,0.0,meteohub,2013-04-20 04:57:00,
2013-04-20 01:02:00,44.2,41.5,29.77,West,259,1.0,5.0,90,0.05,,,0.06,0.0,meteohub,2013-04-20 05:02:00,
2013-04-20 01:07:00,44.2,41.5,29.75,West,265,0.0,5.0,90,0.07,,,0.06,0.0,meteohub,2013-04-20 05:07:00,
2013-04-20 01:13:00,44.1,41.4,29.76,West,278,1.0,3.0,90,0.07,,,0.06,0.0,meteohub,2013-04-20 05:13:00,
2013-04-20 01:18:00,44.1,41.5,29.77,West,278,0.0,4.0,91,0.08,,,0.08,0.0,meteohub,2013-04-20 05:18:00,
2013-04-20 01:23:00,43.9,41.4,29.76,West,278,0.0,4.0,91,0.08,,,0.09,0.0,meteohub,2013-04-20 05:23:00,
2013-04-20 01:29:00,43.9,41.4,29.75,NNE,24,0.0,6.0,91,0.08,,,0.09,0.0,meteohub,2013-04-20 05:29:00,
2013-04-20 01:34:00,43.7,41.0,29.74,NNW,347,2.0,6.0,90,0.08,,,0.10,0.0,meteohub,2013-04-20 05:34:00,
2013-04-20 01:39:00,43.5,40.8,29.74,WSW,252,0.0,6.0,90,0.08,,,0.10,0.0,meteohub,2013-04-20 05:39:00,
2013-04-20 01:44:00,43.3,40.6,29.75,ESE,111,1.0,6.0,90,0.08,,,0.10,0.0,meteohub,2013-04-20 05:44:00,
2013-04-20 01:50:00,43.3,40.6,29.75,East,98,1.0,5.0,90,0.07,,,0.10,0.0,meteohub,2013-04-20 05:50:00,
2013-04-20 01:55:00,43.3,40.8,29.75,East,98,0.0,4.0,91,0.07,,,0.12,0.0,meteohub,2013-04-20 05:55:00,
2013-04-20 02:00:00,43.3,40.8,29.75,East,96,0.0,4.0,91,0.07,,,0.12,0.0,meteohub,2013-04-20 06:00:00,
2013-04-20 02:06:00,43.3,40.8,29.75,WNW,290,0.0,4.0,91,0.07,,,0.12,0.0,meteohub,2013-04-20 06:06:00,
2013-04-20 02:11:00,43.3,40.8,29.74,WNW,290,0.0,1.0,91,0.06,,,0.12,0.0,meteohub,2013-04-20 06:11:00,
2013-04-20 02:16:00,43.3,40.8,29.75,WNW,288,1.0,1.0,91,0.06,,,0.14,0.0,meteohub,2013-04-20 06:16:00,
2013-04-20 02:22:00,43.2,40.6,29.76,WNW,288,0.0,2.0,91,0.05,,,0.14,0.0,meteohub,2013-04-20 06:22:00,
2013-04-20 02:27:00,43.3,40.8,29.76,WNW,288,0.0,2.0,91,0.04,,,0.14,0.0,meteohub,2013-04-20 06:27:00,
2013-04-20 02:32:00,43.2,40.6,29.76,WNW,288,0.0,2.0,91,0.04,,,0.14,0.0,meteohub,2013-04-20 06:32:00,
2013-04-20 02:37:00,43.2,40.6,29.75,WNW,288,0.0,1.0,91,0.04,,,0.14,0.0,meteohub,2013-04-20 06:37:00,
2013-04-20 02:42:00,43.2,40.6,29.75,WNW,288,0.0,1.0,91,0.04,,,0.14,0.0,meteohub,2013-04-20 06:42:00,
2013-04-20 02:47:00,43.3,40.8,29.75,WNW,288,0.0,0.0,91,0.04,,,0.14,0.0,meteohub,2013-04-20 06:47:00,
2013-04-20 02:52:00,43.3,40.8,29.74,WNW,288,0.0,0.0,91,0.04,,,0.15,0.0,meteohub,2013-04-20 06:52:00,
2013-04-20 02:57:00,43.3,40.8,29.74,WNW,288,0.0,1.0,91,0.03,,,0.15,0.0,meteohub,2013-04-20 06:57:00,
2013-04-20 03:02:00,43.2,40.6,29.73,WNW,288,0.0,1.0,91,0.03,,,0.16,0.0,meteohub,2013-04-20 07:02:00,
2013-04-20 03:07:00,43.2,41.0,29.75,WNW,288,0.0,1.0,92,0.03,,,0.16,0.0,meteohub,2013-04-20 07:07:00,
2013-04-20 03:12:00,43.3,41.2,29.76,WNW,288,0.0,1.0,92,0.03,,,0.16,0.0,meteohub,2013-04-20 07:12:00,
2013-04-20 03:17:00,43.3,41.2,29.76,WNW,288,0.0,1.0,92,0.03,,,0.17,0.0,meteohub,2013-04-20 07:17:00,
2013-04-20 03:22:00,43.3,41.2,29.76,WNW,288,0.0,1.0,92,0.03,,,0.18,0.0,meteohub,2013-04-20 07:22:00,
2013-04-20 03:28:00,43.3,41.2,29.77,WNW,288,0.0,0.0,92,0.04,,,0.18,0.0,meteohub,2013-04-20 07:28:00,
2013-04-20 03:33:00,43.3,41.2,29.77,WNW,288,0.0,0.0,92,0.04,,,0.18,0.0,meteohub,2013-04-20 07:33:00,
2013-04-20 03:38:00,43.2,41.0,29.77,WNW,288,0.0,1.0,92,0.04,,,0.18,0.0,meteohub,2013-04-20 07:38:00,
2013-04-20 03:44:00,43.2,41.0,29.76,WNW,288,0.0,1.0,92,0.04,,,0.18,0.0,meteohub,2013-04-20 07:44:00,
2013-04-20 03:49:00,43.2,41.0,29.76,WNW,288,0.0,0.0,92,0.03,,,0.18,0.0,meteohub,2013-04-20 07:49:00,
2013-04-20 03:54:00,43.2,41.0,29.76,WNW,288,0.0,0.0,92,0.03,,,0.18,0.0,meteohub,2013-04-20 07:54:00,
2013-04-20 04:00:00,43.2,41.0,29.76,WNW,288,1.0,0.0,92,0.03,,,0.18,0.0,meteohub,2013-04-20 08:00:00,
2013-04-20 04:05:00,43.2,41.0,29.77,WNW,288,0.0,0.0,92,0.03,,,0.19,0.0,meteohub,2013-04-20 08:05:00,
2013-04-20 04:10:00,43.2,41.0,29.78,WNW,288,0.0,2.0,92,0.03,,,0.19,0.0,meteohub,2013-04-20 08:10:00,
2013-04-20 04:16:00,43.2,41.0,29.78,WNW,288,0.0,2.0,92,0.03,,,0.19,0.0,meteohub,2013-04-20 08:16:00,
2013-04-20 04:21:00,43.2,41.0,29.77,WNW,288,0.0,0.0,92,0.01,,,0.19,0.0,meteohub,2013-04-20 08:21:00,
2013-04-20 04:26:00,43.0,40.8,29.77,WNW,282,4.0,0.0,92,0.01,,,0.19,0.0,meteohub,2013-04-20 08:26:00,
2013-04-20 04:31:00,42.6,40.5,29.76,West,273,0.0,6.0,92,0.01,,,0.19,0.0,meteohub,2013-04-20 08:31:00,
2013-04-20 04:37:00,42.3,40.1,29.76,West,273,0.0,6.0,92,0.01,,,0.19,0.0,meteohub,2013-04-20 08:37:00,
2013-04-20 04:42:00,42.3,40.1,29.77,SSW,206,0.0,6.0,92,0.01,,,0.19,0.0,meteohub,2013-04-20 08:42:00,
2013-04-20 04:47:00,42.1,39.9,29.76,SSW,208,0.0,6.0,92,0.01,,,0.19,0.0,meteohub,2013-04-20 08:47:00,
2013-04-20 04:52:00,42.1,39.9,29.75,SSW,208,0.0,6.0,92,0.01,,,0.19,0.0,meteohub,2013-04-20 08:52:00,
2013-04-20 04:57:00,42.1,39.9,29.76,SSW,208,0.0,6.0,92,0.01,,,0.19,0.0,meteohub,2013-04-20 08:57:00,
2013-04-20 05:02:00,42.3,40.1,29.76,SSW,208,0.0,1.0,92,0.00,,,0.19,0.0,meteohub,2013-04-20 09:02:00,
2013-04-20 05:07:00,42.3,40.1,29.77,SSW,208,0.0,1.0,92,0.00,,,0.19,0.0,meteohub,2013-04-20 09:07:00,
2013-04-20 05:12:00,42.3,40.1,29.77,SSW,208,0.0,1.0,92,0.00,,,0.19,0.0,meteohub,2013-04-20 09:12:00,
2013-04-20 05:17:00,42.1,39.9,29.78,SSW,208,0.0,1.0,92,0.01,,,0.20,0.0,meteohub,2013-04-20 09:17:00,
2013-04-20 05:22:00,42.1,39.9,29.78,SSW,208,0.0,1.0,92,0.01,,,0.20,0.0,meteohub,2013-04-20 09:22:00,
2013-04-20 05:27:00,42.1,39.9,29.78,SSW,208,0.0,1.0,92,0.01,,,0.20,0.0,meteohub,2013-04-20 09:27:00,
2013-04-20 05:32:00,41.9,39.7,29.78,SSW,208,0.0,1.0,92,0.01,,,0.20,0.0,meteohub,2013-04-20 09:32:00,
2013-04-20 05:37:00,41.9,39.7,29.79,SSW,208,0.0,0.0,92,0.01,,,0.20,0.0,meteohub,2013-04-20 09:37:00,
2013-04-20 05:42:00,41.9,39.7,29.79,SSW,208,0.0,0.0,92,0.01,,,0.20,0.0,meteohub,2013-04-20 09:42:00,
2013-04-20 05:47:00,41.7,39.6,29.80,SSW,208,0.0,0.0,92,0.01,,,0.20,0.0,meteohub,2013-04-20 09:47:00,
2013-04-20 05:52:00,41.7,39.6,29.79,SSW,208,0.0,1.0,92,0.01,,,0.20,0.0,meteohub,2013-04-20 09:52:00,
2013-04-20 05:57:00,41.7,39.6,29.79,SSW,208,0.0,1.0,92,0.01,,,0.20,0.0,meteohub,2013-04-20 09:57:00,
2013-04-20 06:02:00,41.7,39.6,29.80,SSW,208,0.0,0.0,92,0.01,,,0.20,0.0,meteohub,2013-04-20 10:02:00,
2013-04-20 06:07:00,41.7,39.6,29.81,SSW,208,0.0,0.0,92,0.01,,,0.20,0.0,meteohub,2013-04-20 10:07:00,
2013-04-20 06:12:00,41.7,39.6,29.81,SSW,208,0.0,0.0,92,0.01,,,0.20,0.0,meteohub,2013-04-20 10:12:00,
2013-04-20 06:17:00,41.7,39.6,29.81,SSW,208,0.0,0.0,92,0.01,,,0.20,5.0,meteohub,2013-04-20 10:17:00,
2013-04-20 06:22:00,41.7,39.6,29.81,SSW,208,0.0,0.0,92,0.00,,,0.20,7.0,meteohub,2013-04-20 10:22:00,
2013-04-20 06:28:00,41.9,40.1,29.81,SSW,208,0.0,0.0,93,0.00,,,0.20,9.0,meteohub,2013-04-20 10:28:00,
2013-04-20 06:33:00,42.1,40.3,29.81,SSW,208,0.0,0.0,93,0.00,,,0.20,14.0,meteohub,2013-04-20 10:33:00,
2013-04-20 06:38:00,42.1,40.3,29.81,SSW,208,0.0,0.0,93,0.00,,,0.20,19.0,meteohub,2013-04-20 10:38:00,
2013-04-20 06:44:00,42.1,40.3,29.81,SSW,208,0.0,0.0,93,0.00,,,0.20,21.0,meteohub,2013-04-20 10:44:00,
2013-04-20 06:49:00,42.1,40.3,29.81,SSW,208,0.0,0.0,93,0.00,,,0.20,21.0,meteohub,2013-04-20 10:49:00,
2013-04-20 06:54:00,42.1,40.3,29.81,SSW,208,0.0,0.0,93,0.00,,,0.20,30.0,meteohub,2013-04-20 10:54:00,
2013-04-20 07:00:00,42.3,40.5,29.82,SSW,208,0.0,0.0,93,0.00,,,0.20,32.0,meteohub,2013-04-20 11:00:00,
2013-04-20 07:05:00,42.3,40.5,29.82,SSW,208,0.0,1.0,93,0.00,,,0.20,30.0,meteohub,2013-04-20 11:05:00,
2013-04-20 07:10:00,42.4,40.6,29.82,SSW,208,0.0,1.0,93,0.00,,,0.20,32.0,meteohub,2013-04-20 11:10:00,
2013-04-20 07:16:00,42.4,40.6,29.83,SSW,208,0.0,1.0,93,0.00,,,0.20,26.0,meteohub,2013-04-20 11:16:00,
2013-04-20 07:21:00,42.6,40.8,29.82,SSW,208,0.0,0.0,93,0.00,,,0.20,28.0,meteohub,2013-04-20 11:21:00,
2013-04-20 07:26:00,42.6,40.8,29.83,SSW,208,0.0,0.0,93,0.00,,,0.20,25.0,meteohub,2013-04-20 11:26:00,
2013-04-20 07:32:00,42.6,40.8,29.83,SSW,208,0.0,0.0,93,0.00,,,0.20,40.0,meteohub,2013-04-20 11:32:00,
2013-04-20 07:37:00,42.6,40.8,29.83,South,188,0.0,2.0,93,0.00,,,0.20,30.0,meteohub,2013-04-20 11:37:00,
2013-04-20 07:42:00,42.4,40.6,29.83,West,272,4.0,4.0,93,0.00,,,0.20,21.0,meteohub,2013-04-20 11:42:00,
2013-04-20 07:47:00,42.3,40.5,29.83,West,277,0.0,2.0,93,0.00,,,0.20,19.0,meteohub,2013-04-20 11:47:00,
2013-04-20 07:52:00,42.1,39.9,29.83,West,275,0.0,7.0,92,0.00,,,0.20,19.0,meteohub,2013-04-20 11:52:00,
2013-04-20 07:57:00,42.1,39.9,29.83,SSW,196,0.0,7.0,92,0.00,,,0.20,26.0,meteohub,2013-04-20 11:57:00,
2013-04-20 08:02:00,41.9,39.7,29.83,SSW,196,0.0,3.0,92,0.00,,,0.20,40.0,meteohub,2013-04-20 12:02:00,
2013-04-20 08:07:00,41.9,39.7,29.83,WSW,257,2.0,3.0,92,0.00,,,0.20,63.0,meteohub,2013-04-20 12:07:00,
2013-04-20 08:12:00,42.1,39.9,29.83,WSW,257,0.0,3.0,92,0.00,,,0.20,111.0,meteohub,2013-04-20 12:12:00,
2013-04-20 08:17:00,42.3,40.1,29.83,WSW,257,0.0,3.0,92,0.00,,,0.20,123.0,meteohub,2013-04-20 12:17:00,
2013-04-20 08:22:00,42.6,40.1,29.83,WSW,257,0.0,3.0,91,0.00,,,0.20,172.0,meteohub,2013-04-20 12:22:00,
2013-04-20 08:27:00,43.2,40.6,29.84,WSW,257,2.0,3.0,91,0.00,,,0.20,181.0,meteohub,2013-04-20 12:27:00,
2013-04-20 08:32:00,43.5,40.8,29.84,WSW,248,3.0,3.0,90,0.00,,,0.20,163.0,meteohub,2013-04-20 12:32:00,
2013-04-20 08:37:00,43.9,40.8,29.84,West,280,3.0,4.0,89,0.00,,,0.20,63.0,meteohub,2013-04-20 12:37:00,
2013-04-20 08:42:00,43.7,40.5,29.83,WNW,288,1.0,4.0,88,0.00,,,0.20,100.0,meteohub,2013-04-20 12:42:00,
2013-04-20 08:47:00,43.7,39.7,29.83,WSW,237,1.0,4.0,86,0.00,,,0.20,186.0,meteohub,2013-04-20 12:47:00,
2013-04-20 08:52:00,44.1,39.6,29.83,SW,224,0.0,5.0,84,0.00,,,0.20,195.0,meteohub,2013-04-20 12:52:00,
2013-04-20 08:57:00,44.2,39.4,29.83,SW,224,0.0,5.0,83,0.00,,,0.20,192.0,meteohub,2013-04-20 12:57:00,
2013-04-20 09:02:00,44.6,39.2,29.84,SW,224,1.0,5.0,81,0.00,,,0.20,213.0,meteohub,2013-04-20 13:02:00,
2013-04-20 09:07:00,44.8,39.0,29.83,West,278,2.0,5.0,80,0.00,,,0.20,186.0,meteohub,2013-04-20 13:07:00,
2013-04-20 09:12:00,45.0,38.8,29.83,West,278,0.0,5.0,79,0.00,,,0.20,120.0,meteohub,2013-04-20 13:12:00,
2013-04-20 09:17:00,45.1,39.0,29.84,West,278,0.0,5.0,79,0.00,,,0.20,218.0,meteohub,2013-04-20 13:17:00,
2013-04-20 09:22:00,45.3,39.2,29.84,NW,317,1.0,6.0,79,0.00,,,0.20,234.0,meteohub,2013-04-20 13:22:00,
2013-04-20 09:27:00,45.7,39.9,29.83,WSW,250,1.0,6.0,80,0.00,,,0.20,299.0,meteohub,2013-04-20 13:27:00,
2013-04-20 09:32:00,45.9,39.7,29.83,West,260,1.0,6.0,79,0.00,,,0.20,250.0,meteohub,2013-04-20 13:32:00,
2013-04-20 09:37:00,46.2,40.5,29.83,SSW,197,2.0,5.0,80,0.00,,,0.20,225.0,meteohub,2013-04-20 13:37:00,
2013-04-20 09:42:00,46.2,39.7,29.83,WSW,237,1.0,5.0,78,0.00,,,0.20,169.0,meteohub,2013-04-20 13:42:00,
2013-04-20 09:48:00,46.2,39.0,29.83,WNW,292,3.0,5.0,76,0.00,,,0.20,172.0,meteohub,2013-04-20 13:48:00,
2013-04-20 09:53:00,46.2,39.0,29.83,WNW,286,6.0,14.0,76,0.00,,,0.20,179.0,meteohub,2013-04-20 13:53:00,
2013-04-20 09:58:00,46.2,38.7,29.84,WSW,246,4.0,14.0,75,0.00,,,0.20,167.0,meteohub,2013-04-20 13:58:00,
2013-04-20 10:04:00,46.2,38.7,29.84,WSW,244,9.0,14.0,75,0.00,,,0.20,243.0,meteohub,2013-04-20 14:04:00,
2013-04-20 10:09:00,46.6,38.5,29.84,SSW,194,4.0,14.0,73,0.00,,,0.20,352.0,meteohub,2013-04-20 14:09:00,
2013-04-20 10:14:00,47.5,39.6,29.84,West,265,0.0,14.0,74,0.00,,,0.20,466.0,meteohub,2013-04-20 14:14:00,
2013-04-20 10:20:00,47.8,39.2,29.84,WNW,294,3.0,17.0,72,0.00,,,0.20,98.0,meteohub,2013-04-20 14:20:00,
2013-04-20 10:25:00,47.8,38.5,29.86,NW,313,1.0,17.0,70,0.00,,,0.20,142.0,meteohub,2013-04-20 14:25:00,
2013-04-20 10:30:00,47.5,37.4,29.86,WSW,257,1.0,17.0,68,0.00,,,0.20,258.0,meteohub,2013-04-20 14:30:00,
2013-04-20 10:36:00,47.3,37.6,29.86,NW,321,2.0,14.0,69,0.00,,,0.20,244.0,meteohub,2013-04-20 14:36:00,
2013-04-20 10:41:00,47.5,38.5,29.86,NW,317,1.0,14.0,71,0.00,,,0.20,265.0,meteohub,2013-04-20 14:41:00,
2013-04-20 10:46:00,47.5,38.1,29.86,NNE,12,1.0,14.0,70,0.00,,,0.20,160.0,meteohub,2013-04-20 14:46:00,
2013-04-20 10:51:00,47.5,38.1,29.87,NW,306,0.0,6.0,70,0.00,,,0.20,123.0,meteohub,2013-04-20 14:51:00,
2013-04-20 10:57:00,47.5,38.5,29.87,West,281,2.0,6.0,71,0.00,,,0.20,185.0,meteohub,2013-04-20 14:57:00,
2013-04-20 11:02:00,47.5,38.5,29.87,West,280,0.0,4.0,71,0.00,,,0.20,276.0,meteohub,2013-04-20 15:02:00,
2013-04-20 11:07:00,47.7,39.0,29.87,NNW,335,4.0,4.0,72,0.00,,,0.20,176.0,meteohub,2013-04-20 15:07:00,
2013-04-20 11:12:00,47.8,38.5,29.88,WSW,258,2.0,4.0,70,0.00,,,0.20,352.0,meteohub,2013-04-20 15:12:00,
2013-04-20 11:17:00,48.2,38.1,29.88,WSW,250,3.0,4.0,68,0.00,,,0.20,341.0,meteohub,2013-04-20 15:17:00,
2013-04-20 11:22:00,48.7,39.0,29.88,NW,307,2.0,9.0,69,0.00,,,0.20,236.0,meteohub,2013-04-20 15:22:00,
2013-04-20 11:27:00,48.7,37.6,29.88,NE,51,1.0,9.0,65,0.00,,,0.20,357.0,meteohub,2013-04-20 15:27:00,
2013-04-20 11:32:00,49.1,37.4,29.88,WNW,290,2.0,9.0,64,0.00,,,0.20,281.0,meteohub,2013-04-20 15:32:00,
2013-04-20 11:37:00,49.3,34.7,29.88,NNW,329,2.0,10.0,57,0.00,,,0.20,257.0,meteohub,2013-04-20 15:37:00,
2013-04-20 11:42:00,49.3,35.6,29.89,WNW,302,1.0,10.0,59,0.00,,,0.20,378.0,meteohub,2013-04-20 15:42:00,
2013-04-20 11:47:00,49.5,34.9,29.89,NNW,332,11.0,11.0,57,0.00,,,0.20,221.0,meteohub,2013-04-20 15:47:00,
2013-04-20 11:52:00,49.5,33.4,29.89,NW,315,2.0,18.0,54,0.00,,,0.20,229.0,meteohub,2013-04-20 15:52:00,
2013-04-20 11:57:00,49.6,34.2,29.89,West,277,6.0,18.0,55,0.00,,,0.20,311.0,meteohub,2013-04-20 15:57:00,
2013-04-20 12:02:00,49.8,34.3,29.90,West,281,3.0,18.0,55,0.00,,,0.20,610.0,meteohub,2013-04-20 16:02:00,
2013-04-20 12:07:00,50.4,33.4,29.90,WNW,293,7.0,18.0,52,0.00,,,0.20,243.0,meteohub,2013-04-20 16:07:00,
2013-04-20 12:12:00,50.4,33.8,29.90,NW,315,9.0,18.0,53,0.00,,,0.20,295.0,meteohub,2013-04-20 16:12:00,
2013-04-20 12:17:00,50.4,33.8,29.90,NNW,335,7.0,18.0,53,0.00,,,0.20,346.0,meteohub,2013-04-20 16:17:00,
2013-04-20 12:22:00,50.4,32.9,29.90,West,259,6.0,18.0,51,0.00,,,0.20,294.0,meteohub,2013-04-20 16:22:00,
2013-04-20 12:27:00,50.4,33.4,29.90,NW,315,2.0,18.0,52,0.00,,,0.20,345.0,meteohub,2013-04-20 16:27:00,
2013-04-20 12:32:00,50.5,33.1,29.90,NW,313,6.0,18.0,51,0.00,,,0.20,381.0,meteohub,2013-04-20 16:32:00,
2013-04-20 12:37:00,51.1,34.0,29.90,NNW,336,7.0,18.0,52,0.00,,,0.20,1209.0,meteohub,2013-04-20 16:37:00,
2013-04-20 12:42:00,51.3,33.3,29.91,NW,315,9.0,18.0,50,0.00,,,0.20,241.0,meteohub,2013-04-20 16:42:00,
2013-04-20 12:47:00,51.3,33.3,29.91,NW,321,6.0,19.0,50,0.00,,,0.20,325.0,meteohub,2013-04-20 16:47:00,
2013-04-20 12:52:00,51.3,34.7,29.91,NW,313,3.0,19.0,53,0.00,,,0.20,459.0,meteohub,2013-04-20 16:52:00,
2013-04-20 12:57:00,51.3,32.2,29.91,WNW,303,5.0,19.0,48,0.00,,,0.20,285.0,meteohub,2013-04-20 16:57:00,
2013-04-20 13:03:00,51.4,32.9,29.91,West,277,10.0,14.0,49,0.00,,,0.20,285.0,meteohub,2013-04-20 17:03:00,
2013-04-20 13:08:00,51.4,32.4,29.91,WNW,285,11.0,14.0,48,0.00,,,0.20,292.0,meteohub,2013-04-20 17:08:00,
2013-04-20 13:13:00,51.4,32.4,29.91,NW,325,0.0,19.0,48,0.00,,,0.20,209.0,meteohub,2013-04-20 17:13:00,
2013-04-20 13:19:00,51.4,31.3,29.91,WNW,294,5.0,19.0,46,0.00,,,0.20,306.0,meteohub,2013-04-20 17:19:00,
2013-04-20 13:24:00,51.4,32.4,29.92,NW,309,10.0,19.0,48,0.00,,,0.20,380.0,meteohub,2013-04-20 17:24:00,
2013-04-20 13:29:00,51.6,32.0,29.91,WSW,239,2.0,19.0,47,0.00,,,0.20,1055.0,meteohub,2013-04-20 17:29:00,
2013-04-20 13:35:00,52.2,33.1,29.92,North,5,2.0,19.0,48,0.00,,,0.20,239.0,meteohub,2013-04-20 17:35:00,
2013-04-20 13:40:00,52.2,32.5,29.92,West,275,7.0,19.0,47,0.00,,,0.20,376.0,meteohub,2013-04-20 17:40:00,
2013-04-20 13:45:00,52.0,31.8,29.92,West,281,6.0,19.0,46,0.00,,,0.20,283.0,meteohub,2013-04-20 17:45:00,
2013-04-20 13:50:00,52.0,32.4,29.92,West,281,3.0,16.0,47,0.00,,,0.20,195.0,meteohub,2013-04-20 17:50:00,
2013-04-20 13:55:00,51.6,32.5,29.93,NW,325,17.0,17.0,48,0.00,,,0.20,192.0,meteohub,2013-04-20 17:55:00,
2013-04-20 14:01:00,51.3,33.3,29.94,NNW,330,2.0,13.0,50,0.00,,,0.20,306.0,meteohub,2013-04-20 18:01:00,
2013-04-20 14:06:00,50.7,34.7,29.94,NW,317,10.0,13.0,54,0.00,,,0.20,313.0,meteohub,2013-04-20 18:06:00,
2013-04-20 14:11:00,50.4,35.2,29.94,NW,305,7.0,20.0,56,0.00,,,0.20,346.0,meteohub,2013-04-20 18:11:00,
2013-04-20 14:17:00,50.2,35.1,29.94,NW,305,7.0,20.0,56,0.00,,,0.20,517.0,meteohub,2013-04-20 18:17:00,
2013-04-20 14:22:00,50.5,36.3,29.94,WNW,303,11.0,18.0,58,0.00,,,0.20,1020.0,meteohub,2013-04-20 18:22:00,
2013-04-20 14:27:00,51.1,36.9,29.94,West,281,7.0,19.0,58,0.00,,,0.20,1088.0,meteohub,2013-04-20 18:27:00,
2013-04-20 14:32:00,51.4,35.8,29.95,WSW,242,8.0,19.0,55,0.00,,,0.20,1088.0,meteohub,2013-04-20 18:32:00,
2013-04-20 14:37:00,51.6,36.5,29.95,NW,326,3.0,19.0,56,0.00,,,0.20,872.0,meteohub,2013-04-20 18:37:00,
2013-04-20 14:42:00,52.3,35.8,29.94,West,281,6.0,19.0,53,0.00,,,0.20,925.0,meteohub,2013-04-20 18:42:00,
2013-04-20 14:48:00,52.9,36.1,29.95,WNW,300,11.0,18.0,53,0.00,,,0.20,905.0,meteohub,2013-04-20 18:48:00,
2013-04-20 14:53:00,52.5,33.4,29.95,WNW,286,2.0,18.0,48,0.00,,,0.20,234.0,meteohub,2013-04-20 18:53:00,
2013-04-20 14:58:00,52.2,33.1,29.95,WNW,300,9.0,20.0,48,0.00,,,0.20,267.0,meteohub,2013-04-20 18:58:00,
2013-04-20 15:04:00,51.8,34.7,29.95,WNW,297,9.0,20.0,52,0.00,,,0.20,269.0,meteohub,2013-04-20 19:04:00,
2013-04-20 15:09:00,51.4,34.3,29.95,WNW,292,4.0,19.0,52,0.00,,,0.20,248.0,meteohub,2013-04-20 19:09:00,
2013-04-20 15:14:00,51.4,33.4,29.96,NW,306,4.0,19.0,50,0.00,,,0.20,272.0,meteohub,2013-04-20 19:14:00,
2013-04-20 15:20:00,51.3,33.3,29.96,WNW,296,9.0,14.0,50,0.00,,,0.20,390.0,meteohub,2013-04-20 19:20:00,
2013-04-20 15:25:00,51.3,32.2,29.96,West,266,11.0,14.0,48,0.00,,,0.20,439.0,meteohub,2013-04-20 19:25:00,
2013-04-20 15:30:00,51.4,34.3,29.96,NW,311,5.0,20.0,52,0.00,,,0.20,427.0,meteohub,2013-04-20 19:30:00,
2013-04-20 15:35:00,51.6,33.6,29.96,West,265,9.0,20.0,50,0.00,,,0.20,956.0,meteohub,2013-04-20 19:35:00,
2013-04-20 15:41:00,51.6,33.1,29.97,SSW,197,4.0,20.0,49,0.00,,,0.20,199.0,meteohub,2013-04-20 19:41:00,
2013-04-20 15:46:00,51.4,32.4,29.98,NW,317,2.0,20.0,48,0.00,,,0.20,269.0,meteohub,2013-04-20 19:46:00,
2013-04-20 15:51:00,51.3,33.3,29.98,WNW,299,5.0,20.0,50,0.00,,,0.20,283.0,meteohub,2013-04-20 19:51:00,
2013-04-20 15:57:00,51.1,33.6,29.98,NW,326,6.0,17.0,51,0.00,,,0.20,281.0,meteohub,2013-04-20 19:57:00,
2013-04-20 16:02:00,51.1,33.1,29.98,WNW,284,6.0,17.0,50,0.00,,,0.20,687.0,meteohub,2013-04-20 20:02:00,
2013-04-20 16:07:00,51.3,32.2,29.98,WNW,286,5.0,17.0,48,0.00,,,0.20,336.0,meteohub,2013-04-20 20:07:00,
2013-04-20 16:12:00,51.3,31.6,29.99,WNW,296,12.0,17.0,47,0.00,,,0.20,612.0,meteohub,2013-04-20 20:12:00,
2013-04-20 16:17:00,51.6,32.0,29.99,WNW,288,9.0,17.0,47,0.00,,,0.20,118.0,meteohub,2013-04-20 20:17:00,
2013-04-20 16:22:00,51.8,31.1,29.99,WNW,297,6.0,17.0,45,0.00,,,0.20,200.0,meteohub,2013-04-20 20:22:00,
2013-04-20 16:27:00,51.6,30.9,29.99,NW,311,5.0,18.0,45,0.00,,,0.20,142.0,meteohub,2013-04-20 20:27:00,
2013-04-20 16:32:00,51.3,31.6,30.00,West,269,5.0,18.0,47,0.00,,,0.20,186.0,meteohub,2013-04-20 20:32:00,
2013-04-20 16:37:00,50.7,30.7,30.00,North,5,4.0,18.0,46,0.00,,,0.20,174.0,meteohub,2013-04-20 20:37:00,
2013-04-20 16:42:00,50.4,31.5,30.01,NW,311,7.0,18.0,48,0.00,,,0.20,492.0,meteohub,2013-04-20 20:42:00,
2013-04-20 16:47:00,50.2,31.3,30.01,WSW,247,3.0,17.0,48,0.00,,,0.20,536.0,meteohub,2013-04-20 20:47:00,
2013-04-20 16:52:00,50.7,31.8,30.01,WNW,286,1.0,17.0,48,0.00,,,0.20,508.0,meteohub,2013-04-20 20:52:00,
2013-04-20 16:57:00,51.1,32.5,30.01,WNW,296,10.0,17.0,49,0.00,,,0.20,408.0,meteohub,2013-04-20 20:57:00,
2013-04-20 17:02:00,51.1,31.1,30.01,NW,319,12.0,17.0,46,0.00,,,0.20,461.0,meteohub,2013-04-20 21:02:00,
2013-04-20 17:07:00,51.1,31.1,30.01,West,278,1.0,17.0,46,0.00,,,0.20,438.0,meteohub,2013-04-20 21:07:00,
2013-04-20 17:12:00,51.4,31.3,30.01,WNW,286,5.0,20.0,46,0.00,,,0.20,455.0,meteohub,2013-04-20 21:12:00,
2013-04-20 17:17:00,51.4,30.2,30.02,WNW,291,2.0,20.0,44,0.00,,,0.20,158.0,meteohub,2013-04-20 21:17:00,
2013-04-20 17:22:00,51.3,31.1,30.02,WNW,302,6.0,18.0,46,0.00,,,0.20,142.0,meteohub,2013-04-20 21:22:00,
2013-04-20 17:27:00,51.3,31.6,30.03,WNW,284,13.0,18.0,47,0.00,,,0.20,188.0,meteohub,2013-04-20 21:27:00,
2013-04-20 17:32:00,50.7,32.2,30.03,NW,317,10.0,18.0,49,0.00,,,0.20,264.0,meteohub,2013-04-20 21:32:00,
2013-04-20 17:37:00,50.4,31.5,30.04,WNW,299,6.0,18.0,48,0.00,,,0.20,425.0,meteohub,2013-04-20 21:37:00,
2013-04-20 17:42:00,50.2,31.3,30.04,NNW,327,5.0,18.0,48,0.00,,,0.20,113.0,meteohub,2013-04-20 21:42:00,
2013-04-20 17:47:00,49.8,32.4,30.05,WNW,290,10.0,16.0,51,0.00,,,0.20,100.0,meteohub,2013-04-20 21:47:00,
2013-04-20 17:52:00,49.5,32.0,30.06,NW,313,7.0,16.0,51,0.00,,,0.20,306.0,meteohub,2013-04-20 21:52:00,
2013-04-20 17:57:00,49.3,30.9,30.06,WNW,285,2.0,16.0,49,0.00,,,0.20,281.0,meteohub,2013-04-20 21:57:00,
2013-04-20 18:02:00,48.9,31.6,30.06,NNW,337,1.0,16.0,51,0.00,,,0.20,46.0,meteohub,2013-04-20 22:02:00,
2013-04-20 18:07:00,48.6,31.8,30.07,NNW,335,4.0,16.0,52,0.00,,,0.20,54.0,meteohub,2013-04-20 22:07:00,
2013-04-20 18:12:00,48.0,30.7,30.07,WSW,250,4.0,20.0,51,0.00,,,0.20,47.0,meteohub,2013-04-20 22:12:00,
2013-04-20 18:17:00,47.5,30.7,30.07,NW,304,7.0,20.0,52,0.00,,,0.20,79.0,meteohub,2013-04-20 22:17:00,
2013-04-20 18:22:00,47.1,30.4,30.08,West,273,2.0,17.0,52,0.00,,,0.20,97.0,meteohub,2013-04-20 22:22:00,
2013-04-20 18:27:00,47.1,30.4,30.08,NW,319,7.0,17.0,52,0.00,,,0.20,32.0,meteohub,2013-04-20 22:27:00,
2013-04-20 18:32:00,46.8,30.0,30.08,NNE,21,6.0,17.0,52,0.00,,,0.20,40.0,meteohub,2013-04-20 22:32:00,
2013-04-20 18:37:00,46.6,30.4,30.09,WSW,250,6.0,17.0,53,0.00,,,0.20,65.0,meteohub,2013-04-20 22:37:00,
2013-04-20 18:42:00,46.2,29.5,30.09,WNW,300,3.0,20.0,52,0.00,,,0.20,58.0,meteohub,2013-04-20 22:42:00,
2013-04-20 18:47:00,46.0,29.5,30.10,WNW,285,2.0,24.0,52,0.00,,,0.20,32.0,meteohub,2013-04-20 22:47:00,
2013-04-20 18:52:00,45.9,29.7,30.10,NW,322,6.0,24.0,53,0.00,,,0.20,30.0,meteohub,2013-04-20 22:52:00,
2013-04-20 18:57:00,45.7,29.5,30.11,WSW,253,5.0,24.0,53,0.00,,,0.20,28.0,meteohub,2013-04-20 22:57:00,
2013-04-20 19:02:00,45.3,28.8,30.11,SE,146,3.0,24.0,52,0.00,,,0.20,26.0,meteohub,2013-04-20 23:02:00,
2013-04-20 19:07:00,45.1,28.9,30.12,North,0,1.0,24.0,53,0.00,,,0.20,25.0,meteohub,2013-04-20 23:07:00,
2013-04-20 19:12:00,45.0,27.9,30.12,West,275,8.0,22.0,51,0.00,,,0.20,21.0,meteohub,2013-04-20 23:12:00,
2013-04-20 19:17:00,44.8,27.7,30.13,NW,320,7.0,22.0,51,0.00,,,0.20,25.0,meteohub,2013-04-20 23:17:00,
2013-04-20 19:22:00,44.4,27.9,30.14,WNW,300,4.0,16.0,52,0.00,,,0.20,16.0,meteohub,2013-04-20 23:22:00,
2013-04-20 19:27:00,44.2,28.2,30.14,NW,319,7.0,17.0,53,0.00,,,0.20,12.0,meteohub,2013-04-20 23:27:00,
2013-04-20 19:32:00,43.9,27.9,30.14,NW,305,5.0,17.0,53,0.00,,,0.20,9.0,meteohub,2013-04-20 23:32:00,
2013-04-20 19:37:00,43.5,28.0,30.15,West,281,3.0,18.0,54,0.00,,,0.20,7.0,meteohub,2013-04-20 23:37:00,
2013-04-20 19:42:00,43.2,27.7,30.16,NNW,331,6.0,18.0,54,0.00,,,0.20,5.0,meteohub,2013-04-20 23:42:00,
2013-04-20 19:47:00,43.0,27.9,30.17,NW,317,10.0,20.0,55,0.00,,,0.20,0.0,meteohub,2013-04-20 23:47:00,
2013-04-20 19:52:00,42.6,28.0,30.17,WNW,283,3.0,20.0,56,0.00,,,0.20,0.0,meteohub,2013-04-20 23:52:00,
2013-04-20 19:57:00,42.3,27.7,30.18,WNW,299,7.0,20.0,56,0.00,,,0.20,0.0,meteohub,2013-04-20 23:57:00,
2013-04-20 20:02:00,42.1,27.9,30.18,NW,309,9.0,20.0,57,0.00,,,0.20,0.0,meteohub,2013-04-21 00:02:00,
2013-04-20 20:08:00,41.7,27.7,30.19,WNW,294,4.0,20.0,57,0.00,,,0.20,0.0,meteohub,2013-04-21 00:08:00,
2013-04-20 20:13:00,41.5,27.9,30.20,WNW,292,2.0,15.0,58,0.00,,,0.20,0.0,meteohub,2013-04-21 00:13:00,
2013-04-20 20:18:00,41.4,28.0,30.20,SW,231,5.0,15.0,59,0.00,,,0.20,0.0,meteohub,2013-04-21 00:18:00,
2013-04-20 20:24:00,41.0,28.2,30.21,NW,326,10.0,15.0,60,0.00,,,0.20,0.0,meteohub,2013-04-21 00:24:00,
2013-04-20 20:29:00,40.6,27.9,30.22,NNW,333,5.0,15.0,60,0.00,,,0.20,0.0,meteohub,2013-04-21 00:29:00,
2013-04-20 20:34:00,40.5,28.4,30.22,NW,306,1.0,15.0,62,0.00,,,0.20,0.0,meteohub,2013-04-21 00:34:00,
2013-04-20 20:40:00,40.3,28.2,30.22,WNW,286,9.0,16.0,62,0.00,,,0.20,0.0,meteohub,2013-04-21 00:40:00,
2013-04-20 20:45:00,39.9,28.0,30.23,WNW,296,6.0,16.0,62,0.00,,,0.20,0.0,meteohub,2013-04-21 00:45:00,
2013-04-20 20:50:00,39.9,28.4,30.24,WSW,257,4.0,15.0,63,0.00,,,0.20,0.0,meteohub,2013-04-21 00:50:00,
2013-04-20 20:56:00,39.7,28.2,30.24,NW,321,1.0,15.0,63,0.00,,,0.20,0.0,meteohub,2013-04-21 00:56:00,
2013-04-20 21:01:00,39.6,28.0,30.25,WNW,289,6.0,15.0,63,0.00,,,0.20,0.0,meteohub,2013-04-21 01:01:00,
2013-04-20 21:06:00,39.4,28.2,30.25,WNW,285,0.0,15.0,64,0.00,,,0.20,0.0,meteohub,2013-04-21 01:06:00,
2013-04-20 21:12:00,39.0,27.9,30.26,WSW,246,5.0,13.0,64,0.00,,,0.20,0.0,meteohub,2013-04-21 01:12:00,
2013-04-20 21:17:00,38.8,28.0,30.26,SW,234,0.0,13.0,65,0.00,,,0.20,0.0,meteohub,2013-04-21 01:17:00,
2013-04-20 21:22:00,38.7,27.9,30.26,NW,319,9.0,13.0,65,0.00,,,0.20,0.0,meteohub,2013-04-21 01:22:00,
2013-04-20 21:27:00,38.7,27.9,30.27,NNW,333,5.0,20.0,65,0.00,,,0.20,0.0,meteohub,2013-04-21 01:27:00,
2013-04-20 21:32:00,38.5,27.7,30.27,WNW,300,3.0,20.0,65,0.00,,,0.20,0.0,meteohub,2013-04-21 01:32:00,
2013-04-20 21:37:00,38.1,27.9,30.28,WNW,303,4.0,13.0,66,0.00,,,0.20,0.0,meteohub,2013-04-21 01:37:00,
2013-04-20 21:42:00,38.1,27.3,30.28,WNW,296,6.0,13.0,65,0.00,,,0.20,0.0,meteohub,2013-04-21 01:42:00,
2013-04-20 21:47:00,37.9,27.1,30.29,NW,306,5.0,19.0,65,0.00,,,0.20,0.0,meteohub,2013-04-21 01:47:00,
2013-04-20 21:52:00,37.8,27.5,30.29,NW,317,4.0,19.0,66,0.00,,,0.20,0.0,meteohub,2013-04-21 01:52:00,
2013-04-20 21:57:00,37.8,27.5,30.29,WNW,296,3.0,18.0,66,0.00,,,0.20,0.0,meteohub,2013-04-21 01:57:00,
2013-04-20 22:02:00,37.6,27.3,30.30,NNW,333,4.0,18.0,66,0.00,,,0.20,0.0,meteohub,2013-04-21 02:02:00,
2013-04-20 22:07:00,37.4,27.1,30.30,WNW,291,0.0,18.0,66,0.00,,,0.20,0.0,meteohub,2013-04-21 02:07:00,
2013-04-20 22:12:00,37.2,27.3,30.30,NNW,327,0.0,14.0,67,0.00,,,0.20,0.0,meteohub,2013-04-21 02:12:00,
2013-04-20 22:17:00,37.0,27.1,30.30,WNW,301,3.0,14.0,67,0.00,,,0.20,0.0,meteohub,2013-04-21 02:17:00,
2013-04-20 22:22:00,36.9,27.3,30.30,NNW,333,2.0,12.0,68,0.00,,,0.20,0.0,meteohub,2013-04-21 02:22:00,
2013-04-20 22:27:00,36.7,27.1,30.30,West,281,0.0,11.0,68,0.00,,,0.20,0.0,meteohub,2013-04-21 02:27:00,
2013-04-20 22:32:00,36.7,27.1,30.30,West,263,0.0,11.0,68,0.00,,,0.20,0.0,meteohub,2013-04-21 02:32:00,
2013-04-20 22:37:00,36.3,27.1,30.31,NE,34,2.0,11.0,69,0.00,,,0.20,0.0,meteohub,2013-04-21 02:37:00,
2013-04-20 22:43:00,36.3,26.8,30.31,WNW,286,3.0,11.0,68,0.00,,,0.20,0.0,meteohub,2013-04-21 02:43:00,
2013-04-20 22:48:00,36.1,27.0,30.31,WSW,252,2.0,11.0,69,0.00,,,0.20,0.0,meteohub,2013-04-21 02:48:00,
2013-04-20 22:53:00,36.1,26.6,30.31,WNW,298,1.0,11.0,68,0.00,,,0.20,0.0,meteohub,2013-04-21 02:53:00,
2013-04-20 22:59:00,36.0,26.1,30.32,NW,313,2.0,12.0,67,0.00,,,0.20,0.0,meteohub,2013-04-21 02:59:00,
2013-04-20 23:04:00,36.0,25.7,30.32,West,278,1.0,12.0,66,0.00,,,0.20,0.0,meteohub,2013-04-21 03:04:00,
2013-04-20 23:09:00,36.0,25.3,30.32,WNW,301,6.0,13.0,65,0.00,,,0.20,0.0,meteohub,2013-04-21 03:09:00,
2013-04-20 23:15:00,35.8,24.4,30.32,West,273,6.0,13.0,63,0.00,,,0.20,0.0,meteohub,2013-04-21 03:15:00,
2013-04-20 23:20:00,36.0,23.9,30.32,NW,313,1.0,13.0,61,0.00,,,0.20,0.0,meteohub,2013-04-21 03:20:00,
2013-04-20 23:25:00,36.0,23.4,30.32,WNW,301,3.0,13.0,60,0.00,,,0.20,0.0,meteohub,2013-04-21 03:25:00,
2013-04-20 23:30:00,36.1,23.5,30.32,WSW,252,11.0,12.0,60,0.00,,,0.20,0.0,meteohub,2013-04-21 03:30:00,
2013-04-20 23:36:00,36.1,23.5,30.32,WNW,284,5.0,12.0,60,0.00,,,0.20,0.0,meteohub,2013-04-21 03:36:00,
2013-04-20 23:41:00,36.1,23.5,30.32,West,279,1.0,13.0,60,0.00,,,0.20,0.0,meteohub,2013-04-21 03:41:00,
2013-04-20 23:46:00,36.1,24.1,30.32,NW,306,2.0,13.0,61,0.00,,,0.20,0.0,meteohub,2013-04-21 03:46:00,
2013-04-20 23:52:00,36.0,23.9,30.32,WNW,303,2.0,14.0,61,0.00,,,0.20,0.0,meteohub,2013-04-21 03:52:00,
2013-04-20 23:57:00,36.0,23.9,30.32,West,281,4.0,14.0,61,0.00,,,0.20,0.0,meteohub,2013-04-21 03:57:00,